QPF
0.00 0.00 0.00 0.00 0.00 0.00 0.00 0.00 0.00 0.00 0.00 0.00 0.00 0.00 0.00 0.00 0.00 0.00 0.00 0.00 0.00 0.00 0.00 0.00 0.00 0.00 0.00 0.00 0.00 0.00 0.00 0.00 0.00 0.01 0.01 0.01 0.01 0.01 0.01 0.01 0.01 0.00 0.00
0.00 0.00 0.00 0.00 0.00 0.00 0.00 0.00 0.00 0.00 0.00 0.00 0.00 0.00 0.00 0.00 0.00 0.00 0.00 0.00 0.00 0.00 0.00 0.00 0.00 0.00 0.00 0.00 0.00 0.00 0.00 0.00 0.00 0.00 0.00 0.00 0.01 0.01 0.01 0.01 0.01 0.01 0.01
0.00 0.00 0.00 0.00 0.00 0.00 0.00 0.00 0.00 0.00 0.00 0.00 0.00 0.00 0.00 0.00 0.00 0.00 0.00 0.00 0.00 0.00 0.00 0.00 0.00 0.00 0.00 0.00 0.00 0.00 0.00 0.00 0.00 0.00 0.00 0.00 0.01 0.01 0.01 0.01 0.01 0.01 0.01
0.00 0.00 0.00 0.00 0.00 0.00 0.00 0.00 0.00 0.00 0.00 0.00 0.00 0.00 0.00 0.00 0.00 0.00 0.00 0.00 0.00 0.00 0.00 0.00 0.00 0.00 0.00 0.00 0.00 0.00 0.00 0.00 0.00 0.00 0.00 0.00 0.01 0.01 0.01 0.02 0.02 0.02 0.01
0.00 0.00 0.00 0.00 0.00 0.00 0.00 0.00 0.00 0.00 0.00 0.00 0.00 0.00 0.00 0.00 0.00 0.00 0.00 0.00 0.00 0.00 0.00 0.00 0.00 0.00 0.00 0.00 0.00 0.00 0.00 0.00 0.00 0.00 0.00 0.00 0.01 0.01 0.01 0.02 0.02 0.02 0.02
0.00 0.00 0.00 0.00 0.00 0.00 0.00 0.00 0.00 0.00 0.00 0.00 0.00 0.00 0.00 0.00 0.00 0.00 0.00 0.00 0.00 0.00 0.00 0.00 0.00 0.00 0.00 0.00 0.00 0.00 0.00 0.00 0.00 0.00 0.00 0.00 0.01 0.01 0.01 0.02 0.02 0.02 0.02
0.00 0.00 0.00 0.00 0.00 0.00 0.00 0.00 0.00 0.00 0.00 0.00 0.00 0.00 0.00 0.00 0.00 0.00 0.00 0.00 0.00 0.00 0.00 0.00 0.00 0.00 0.00 0.00 0.00 0.00 0.00 0.00 0.00 0.00 0.00 0.00 0.01 0.01 0.02 0.02 0.02 0.02 0.02
0.00 0.00 0.00 0.00 0.00 0.00 0.00 0.00 0.00 0.00 0.00 0.00 0.00 0.00 0.00 0.00 0.00 0.00 0.00 0.00 0.00 0.00 0.00 0.00 0.00 0.00 0.00 0.00 0.00 0.00 0.00 0.00 0.00 0.00 0.00 0.01 0.01 0.01 0.02 0.02 0.02 0.03 0.03
0.00 0.00 0.00 0.00 0.00 0.00 0.00 0.00 0.00 0.00 0.00 0.00 0.00 0.00 0.00 0.00 0.00 0.00 0.00 0.00 0.00 0.00 0.00 0.00 0.00 0.00 0.00 0.00 0.00 0.00 0.00 0.00 0.00 0.00 0.00 0.01 0.01 0.02 0.03 0.03 0.03 0.04 0.04
0.00 0.00 0.00 0.00 0.00 0.00 0.00 0.00 0.00 0.00 0.00 0.00 0.00 0.00 0.00 0.00 0.00 0.00 0.00 0.00 0.00 0.00 0.00 0.00 0.00 0.00 0.00 0.00 0.00 0.00 0.00 0.00 0.00 0.00 0.00 0.01 0.02 0.03 0.03 0.04 0.04 0.04 0.04
0.00 0.00 0.00 0.00 0.00 0.00 0.00 0.00 0.00 0.00 0.00 0.00 0.00 0.00 0.00 0.00 0.00 0.00 0.00 0.00 0.00 0.00 0.00 0.00 0.00 0.00 0.00 0.00 0.00 0.00 0.00 0.00 0.00 0.00 0.00 0.01 0.02 0.02 0.03 0.04 0.04 0.04 0.04
0.00 0.00 0.00 0.00 0.00 0.00 0.00 0.00 0.00 0.00 0.00 0.00 0.00 0.00 0.00 0.00 0.00 0.00 0.00 0.00 0.00 0.00 0.00 0.00 0.00 0.00 0.00 0.00 0.00 0.00 0.00 0.00 0.00 0.00 0.00 0.00 0.01 0.01 0.02 0.02 0.03 0.03 0.03
0.00 0.00 0.00 0.00 0.00 0.00 0.00 0.00 0.00 0.00 0.00 0.00 0.00 0.00 0.00 0.00 0.00 0.00 0.00 0.00 0.00 0.00 0.00 0.00 0.00 0.00 0.00 0.00 0.00 0.00 0.00 0.00 0.00 0.00 0.00 0.00 0.00 0.01 0.01 0.01 0.02 0.02 0.03
0.00 0.00 0.00 0.00 0.00 0.00 0.00 0.00 0.00 0.00 0.00 0.00 0.00 0.00 0.00 0.00 0.00 0.00 0.00 0.00 0.00 0.00 0.00 0.00 0.00 0.00 0.00 0.00 0.00 0.00 0.00 0.00 0.00 0.00 0.00 0.00 0.00 0.00 0.01 0.01 0.02 0.02 0.02
0.00 0.00 0.00 0.00 0.00 0.00 0.00 0.00 0.00 0.00 0.00 0.00 0.00 0.00 0.00 0.00 0.00 0.00 0.00 0.00 0.00 0.00 0.00 0.00 0.00 0.00 0.00 0.00 0.00 0.00 0.00 0.00 0.00 0.00 0.00 0.00 0.00 0.00 0.01 0.01 0.01 0.02 0.02
0.00 0.00 0.00 0.00 0.00 0.00 0.00 0.00 0.00 0.00 0.00 0.00 0.00 0.00 0.00 0.00 0.00 0.00 0.00 0.00 0.00 0.00 0.00 0.00 0.00 0.00 0.00 0.00 0.00 0.00 0.00 0.00 0.00 0.00 0.00 0.00 0.00 0.00 0.01 0.01 0.01 0.02 0.02
0.00 0.00 0.00 0.00 0.00 0.00 0.00 0.00 0.00 0.00 0.00 0.00 0.00 0.00 0.00 0.00 0.00 0.00 0.00 0.00 0.00 0.00 0.00 0.00 0.00 0.00 0.00 0.00 0.00 0.00 0.00 0.00 0.00 0.00 0.00 0.00 0.00 0.00 0.01 0.01 0.01 0.02 0.02
0.00 0.00 0.00 0.00 0.00 0.00 0.00 0.00 0.00 0.00 0.00 0.00 0.00 0.00 0.00 0.00 0.00 0.00 0.00 0.00 0.00 0.00 0.01 0.00 0.00 0.00 0.00 0.00 0.00 0.00 0.00 0.00 0.00 0.00 0.00 0.00 0.00 0.01 0.01 0.01 0.01 0.02 0.02
0.00 0.00 0.00 0.00 0.00 0.00 0.00 0.00 0.00 0.00 0.00 0.00 0.00 0.00 0.00 0.00 0.00 0.01 0.01 0.01 0.01 0.01 0.01 0.01 0.00 0.00 0.00 0.00 0.00 0.00 0.00 0.00 0.00 0.00 0.00 0.00 0.00 0.00 0.01 0.01 0.01 0.01 0.02
0.00 0.00 0.00 0.00 0.00 0.00 0.00 0.00 0.00 0.00 0.00 0.00 0.00 0.00 0.00 0.00 0.00 0.01 0.01 0.01 0.01 0.01 0.01 0.02 0.01 0.00 0.00 0.00 0.00 0.00 0.00 0.00 0.00 0.00 0.00 0.00 0.00 0.00 0.00 0.00 0.01 0.01 0.01
0.00 0.00 0.00 0.00 0.00 0.00 0.00 0.00 0.00 0.00 0.00 0.00 0.00 0.00 0.00 0.00 0.00 0.01 0.01 0.01 0.01 0.02 0.02 0.02 0.02 0.01 0.01 0.00 0.00 0.00 0.01 0.00 0.00 0.00 0.00 0.00 0.00 0.00 0.00 0.00 0.00 0.00 0.00
0.00 0.00 0.00 0.00 0.00 0.00 0.00 0.00 0.00 0.00 0.00 0.00 0.00 0.00 0.00 0.00 0.01 0.01 0.02 0.02 0.03 0.03 0.03 0.02 0.02 0.01 0.01 0.00 0.00 0.01 0.02 0.02 0.01 0.00 0.00 0.00 0.00 0.00 0.00 0.00 0.00 0.00 0.00
0.00 0.00 0.00 0.00 0.00 0.00 0.00 0.00 0.00 0.00 0.00 0.00 0.00 0.00 0.01 0.01 0.01 0.01 0.02 0.04 0.06 0.07 0.06 0.05 0.04 0.01 0.00 0.00 0.01 0.03 0.02 0.02 0.01 0.00 0.01 0.01 0.00 0.00 0.00 0.00 0.00 0.00 0.00
0.00 0.00 0.00 0.00 0.00 0.00 0.00 0.00 0.00 0.01 0.01 0.00 0.00 0.00 0.00 0.00 0.01 0.01 0.02 0.03 0.03 0.04 0.07 0.10 0.12 0.06 0.02 0.01 0.02 0.03 0.03 0.04 0.02 0.00 0.01 0.01 0.00 0.00 0.00 0.00 0.00 0.00 0.00
0.00 0.00 0.00 0.00 0.00 0.00 0.00 0.00 0.01 0.01 0.00 0.00 0.00 0.00 0.00 0.01 0.01 0.02 0.05 0.04 0.02 0.01 0.01 0.04 0.08 0.08 0.06 0.04 0.04 0.08 0.10 0.08 0.04 0.01 0.00 0.00 0.00 0.00 0.00 0.00 0.00 0.00 0.00
0.00 0.00 0.00 0.00 0.00 0.00 0.00 0.00 0.00 0.00 0.00 0.00 0.00 0.00 0.01 0.01 0.01 0.03 0.06 0.06 0.03 0.01 0.01 0.02 0.03 0.04 0.05 0.06 0.06 0.07 0.07 0.06 0.04 0.01 0.00 0.00 0.00 0.01 0.01 0.00 0.00 0.00 0.00
MSLP
1024.59 1024.95 1025.21 1025.40 1025.54 1025.65 1025.77 1025.89 1026.04 1026.18 1026.33 1026.45 1026.53 1026.58 1026.59 1026.57 1026.53 1026.48 1026.42 1026.34 1026.25 1026.14 1026.00 1025.83 1025.65 1025.46 1025.27 1025.09 1024.93 1024.79 1024.67 1024.57 1024.49 1024.42 1024.36 1024.29 1024.22 1024.13 1024.02 1023.88 1023.71 1023.50 1023.26
1024.21 1024.56 1024.83 1025.04 1025.19 1025.33 1025.48 1025.63 1025.81 1025.98 1026.14 1026.27 1026.35 1026.39 1026.38 1026.33 1026.25 1026.17 1026.08 1025.99 1025.90 1025.80 1025.69 1025.55 1025.39 1025.21 1025.02 1024.82 1024.64 1024.47 1024.33 1024.21 1024.12 1024.06 1024.01 1023.97 1023.92 1023.87 1023.78 1023.66 1023.50 1023.31 1023.08
1023.64 1024.01 1024.30 1024.54 1024.75 1024.95 1025.16 1025.37 1025.59 1025.81 1025.99 1026.12 1026.19 1026.19 1026.14 1026.03 1025.90 1025.76 1025.63 1025.51 1025.41 1025.31 1025.22 1025.12 1024.99 1024.85 1024.68 1024.50 1024.32 1024.14 1023.98 1023.85 1023.75 1023.69 1023.64 1023.61 1023.58 1023.54 1023.47 1023.37 1023.22 1023.03 1022.82
1022.94 1023.32 1023.66 1023.96 1024.25 1024.53 1024.81 1025.10 1025.38 1025.63 1025.83 1025.96 1026.00 1025.96 1025.84 1025.66 1025.46 1025.25 1025.06 1024.90 1024.78 1024.69 1024.62 1024.56 1024.49 1024.39 1024.27 1024.13 1023.97 1023.81 1023.66 1023.52 1023.41 1023.34 1023.29 1023.25 1023.21 1023.17 1023.10 1022.99 1022.85 1022.67 1022.46
1022.17 1022.57 1022.95 1023.32 1023.69 1024.06 1024.43 1024.79 1025.13 1025.41 1025.61 1025.73 1025.73 1025.64 1025.45 1025.21 1024.93 1024.65 1024.40 1024.20 1024.06 1023.97 1023.93 1023.91 1023.90 1023.86 1023.81 1023.72 1023.61 1023.48 1023.34 1023.21 1023.10 1023.01 1022.94 1022.88 1022.82 1022.76 1022.67 1022.55 1022.40 1022.22 1022.02
1021.36 1021.77 1022.19 1022.62 1023.07 1023.52 1023.96 1024.38 1024.75 1025.05 1025.25 1025.34 1025.32 1025.18 1024.95 1024.65 1024.31 1023.98 1023.69 1023.46 1023.30 1023.22 1023.20 1023.22 1023.25 1023.29 1023.29 1023.27 1023.21 1023.13 1023.02 1022.90 1022.79 1022.68 1022.59 1022.50 1022.41 1022.31 1022.19 1022.05 1021.88 1021.70 1021.49
1020.52 1020.93 1021.38 1021.85 1022.34 1022.84 1023.32 1023.77 1024.16 1024.46 1024.66 1024.74 1024.70 1024.55 1024.30 1023.98 1023.63 1023.29 1022.98 1022.73 1022.57 1022.49 1022.47 1022.52 1022.59 1022.67 1022.73 1022.76 1022.76 1022.72 1022.64 1022.54 1022.43 1022.32 1022.20 1022.07 1021.94 1021.81 1021.66 1021.49 1021.30 1021.11 1020.90
1019.67 1020.05 1020.49 1020.96 1021.47 1021.97 1022.46 1022.91 1023.29 1023.59 1023.79 1023.87 1023.85 1023.72 1023.50 1023.22 1022.90 1022.58 1022.29 1022.05 1021.89 1021.80 1021.79 1021.83 1021.91 1022.02 1022.11 1022.18 1022.22 1022.22 1022.17 1022.10 1022.00 1021.87 1021.73 1021.58 1021.42 1021.25 1021.07 1020.88 1020.68 1020.48 1020.28
1018.77 1019.10 1019.49 1019.94 1020.41 1020.89 1021.35 1021.77 1022.13 1022.42 1022.63 1022.74 1022.77 1022.70 1022.57 1022.37 1022.13 1021.87 1021.63 1021.42 1021.26 1021.17 1021.14 1021.16 1021.23 1021.33 1021.43 1021.52 1021.58 1021.60 1021.59 1021.54 1021.45 1021.33 1021.18 1021.01 1020.83 1020.64 1020.44 1020.24 1020.04 1019.84 1019.66
1017.83 1018.08 1018.40 1018.78 1019.18 1019.60 1020.00 1020.38 1020.71 1020.99 1021.22 1021.39 1021.49 1021.53 1021.51 1021.44 1021.32 1021.16 1020.99 1020.82 1020.67 1020.56 1020.49 1020.48 1020.52 1020.58 1020.67 1020.76 1020.84 1020.88 1020.89 1020.86 1020.78 1020.67 1020.53 1020.36 1020.17 1019.98 1019.78 1019.58 1019.39 1019.21 1019.04
1016.86 1017.02 1017.25 1017.53 1017.84 1018.17 1018.50 1018.82 1019.12 1019.40 1019.65 1019.88 1020.09 1020.25 1020.37 1020.44 1020.45 1020.40 1020.30 1020.18 1020.05 1019.92 1019.82 1019.77 1019.76 1019.80 1019.86 1019.94 1020.02 1020.08 1020.10 1020.09 1020.03 1019.93 1019.80 1019.64 1019.46 1019.28 1019.09 1018.92 1018.75 1018.59 1018.44
1015.90 1015.97 1016.09 1016.27 1016.48 1016.71 1016.96 1017.21 1017.47 1017.73 1018.02 1018.31 1018.61 1018.90 1019.15 1019.35 1019.49 1019.54 1019.52 1019.45 1019.33 1019.20 1019.08 1018.99 1018.95 1018.96 1019.01 1019.08 1019.17 1019.23 1019.27 1019.27 1019.23 1019.14 1019.02 1018.87 1018.71 1018.55 1018.39 1018.24 1018.11 1017.97 1017.85
1015.01 1014.97 1015.00 1015.07 1015.18 1015.31 1015.47 1015.65 1015.86 1016.11 1016.41 1016.75 1017.12 1017.49 1017.85 1018.17 1018.40 1018.54 1018.60 1018.56 1018.47 1018.35 1018.23 1018.14 1018.09 1018.10 1018.15 1018.23 1018.32 1018.40 1018.46 1018.46 1018.42 1018.34 1018.23 1018.09 1017.95 1017.81 1017.68 1017.57 1017.46 1017.35 1017.25
1014.22 1014.11 1014.04 1014.02 1014.02 1014.06 1014.12 1014.22 1014.38 1014.59 1014.88 1015.23 1015.64 1016.07 1016.49 1016.87 1017.17 1017.38 1017.48 1017.50 1017.45 1017.36 1017.27 1017.21 1017.19 1017.23 1017.31 1017.41 1017.53 1017.62 1017.68 1017.69 1017.65 1017.56 1017.45 1017.31 1017.18 1017.06 1016.96 1016.87 1016.79 1016.70 1016.60
1013.57 1013.39 1013.25 1013.14 1013.05 1012.99 1012.97 1012.98 1013.06 1013.22 1013.47 1013.80 1014.19 1014.62 1015.06 1015.46 1015.80 1016.04 1016.19 1016.26 1016.26 1016.23 1016.21 1016.21 1016.26 1016.36 1016.50 1016.65 1016.79 1016.91 1016.97 1016.97 1016.91 1016.81 1016.68 1016.54 1016.41 1016.29 1016.21 1016.13 1016.06 1015.99 1015.89
1013.05 1012.82 1012.62 1012.44 1012.27 1012.12 1012.00 1011.92 1011.92 1011.99 1012.17 1012.44 1012.78 1013.18 1013.59 1013.98 1014.31 1014.58 1014.76 1014.88 1014.95 1015.01 1015.08 1015.18 1015.33 1015.51 1015.72 1015.93 1016.11 1016.23 1016.29 1016.27 1016.19 1016.06 1015.90 1015.74 1015.60 1015.49 1015.40 1015.34 1015.27 1015.19 1015.07
1012.64 1012.37 1012.11 1011.86 1011.61 1011.38 1011.17 1011.00 1010.90 1010.88 1010.96 1011.14 1011.41 1011.74 1012.09 1012.45 1012.77 1013.04 1013.26 1013.43 1013.59 1013.74 1013.92 1014.13 1014.39 1014.67 1014.95 1015.21 1015.42 1015.56 1015.60 1015.56 1015.44 1015.28 1015.09 1014.90 1014.74 1014.62 1014.53 1014.46 1014.38 1014.28 1014.14
1012.26 1011.95 1011.65 1011.34 1011.02 1010.70 1010.40 1010.14 1009.94 1009.83 1009.82 1009.91 1010.09 1010.34 1010.63 1010.93 1011.23 1011.51 1011.76 1012.00 1012.23 1012.49 1012.77 1013.09 1013.44 1013.80 1014.15 1014.45 1014.68 1014.81 1014.84 1014.77 1014.62 1014.42 1014.21 1014.00 1013.82 1013.68 1013.58 1013.49 1013.39 1013.27 1013.10
1011.85 1011.51 1011.16 1010.79 1010.41 1010.02 1009.64 1009.30 1009.01 1008.81 1008.71 1008.72 1008.82 1008.99 1009.23 1009.50 1009.78 1010.06 1010.34 1010.63 1010.94 1011.27 1011.64 1012.04 1012.47 1012.89 1013.27 1013.60 1013.83 1013.95 1013.96 1013.87 1013.70 1013.48 1013.24 1013.02 1012.82 1012.67 1012.54 1012.43 1012.31 1012.15 1011.95
1011.37 1010.99 1010.60 1010.18 1009.74 1009.29 1008.84 1008.43 1008.08 1007.81 1007.64 1007.58 1007.62 1007.74 1007.93 1008.18 1008.45 1008.74 1009.05 1009.37 1009.73 1010.12 1010.54 1010.99 1011.45 1011.89 1012.29 1012.61 1012.83 1012.94 1012.94 1012.84 1012.66 1012.44 1012.20 1011.97 1011.77 1011.60 1011.45 1011.31 1011.15 1010.95 1010.71
1010.78 1010.37 1009.93 1009.47 1008.98 1008.48 1007.99 1007.53 1007.13 1006.82 1006.61 1006.50 1006.50 1006.60 1006.77 1006.99 1007.26 1007.55 1007.87 1008.22 1008.59 1009.00 1009.43 1009.89 1010.35 1010.78 1011.17 1011.48 1011.69 1011.80 1011.80 1011.71 1011.54 1011.34 1011.11 1010.90 1010.69 1010.51 1010.33 1010.15 1009.94 1009.70 1009.41
1010.09 1009.64 1009.17 1008.67 1008.15 1007.62 1007.09 1006.61 1006.18 1005.85 1005.62 1005.49 1005.48 1005.56 1005.72 1005.93 1006.19 1006.48 1006.79 1007.13 1007.50 1007.89 1008.31 1008.74 1009.17 1009.58 1009.94 1010.23 1010.44 1010.55 1010.57 1010.51 1010.39 1010.22 1010.03 1009.83 1009.63 1009.42 1009.21 1008.98 1008.72 1008.41 1008.07
1009.33 1008.85 1008.35 1007.82 1007.28 1006.73 1006.19 1005.70 1005.27 1004.93 1004.69 1004.57 1004.55 1004.62 1004.76 1004.96 1005.21 1005.48 1005.77 1006.08 1006.41 1006.77 1007.14 1007.53 1007.92 1008.30 1008.64 1008.92 1009.14 1009.28 1009.34 1009.33 1009.26 1009.14 1008.99 1008.81 1008.61 1008.39 1008.13 1007.84 1007.50 1007.13 1006.72
1008.52 1008.02 1007.50 1006.96 1006.40 1005.85 1005.31 1004.82 1004.40 1004.06 1003.83 1003.71 1003.69 1003.75 1003.87 1004.05 1004.26 1004.50 1004.75 1005.01 1005.29 1005.60 1005.93 1006.28 1006.63 1006.99 1007.32 1007.62 1007.86 1008.05 1008.17 1008.23 1008.22 1008.16 1008.04 1007.88 1007.67 1007.41 1007.10 1006.73 1006.32 1005.87 1005.39
1007.71 1007.19 1006.66 1006.11 1005.55 1005.00 1004.48 1004.00 1003.59 1003.26 1003.04 1002.92 1002.88 1002.92 1003.02 1003.16 1003.33 1003.51 1003.70 1003.92 1004.15 1004.41 1004.70 1005.02 1005.36 1005.71 1006.06 1006.40 1006.69 1006.94 1007.13 1007.25 1007.30 1007.28 1007.19 1007.03 1006.79 1006.49 1006.11 1005.67 1005.18 1004.65 1004.10
1006.92 1006.39 1005.85 1005.30 1004.74 1004.20 1003.69 1003.23 1002.83 1002.52 1002.30 1002.17 1002.12 1002.13 1002.18 1002.27 1002.38 1002.51 1002.65 1002.81 1003.00 1003.22 1003.49 1003.81 1004.16 1004.54 1004.93 1005.31 1005.67 1005.98 1006.23 1006.41 1006.50 1006.50 1006.41 1006.23 1005.96 1005.60 1005.15 1004.64 1004.07 1003.46 1002.85
Thickness
5634 5631 5628 5625 5622 5619 5616 5613 5610 5607 5605 5602 5600 5599 5598 5596 5594 5593 5591 5589 5588 5587 5585 5584 5583 5581 5580 5579 5578 5577 5577 5577 5577 5578 5578 5579 5581 5582 5583 5585 5588 5590 5593
5631 5627 5623 5620 5617 5614 5611 5608 5605 5602 5599 5596 5595 5593 5592 5590 5588 5586 5584 5582 5581 5579 5578 5576 5575 5573 5571 5570 5569 5568 5567 5567 5567 5567 5567 5568 5569 5571 5572 5574 5577 5579 5582
5628 5623 5619 5615 5612 5608 5605 5602 5598 5595 5592 5590 5588 5587 5586 5584 5582 5580 5578 5575 5573 5571 5569 5568 5566 5564 5562 5560 5559 5558 5557 5556 5556 5556 5556 5557 5558 5559 5561 5563 5565 5568 5571
5624 5619 5615 5611 5606 5602 5599 5595 5592 5588 5586 5583 5581 5580 5579 5577 5575 5573 5571 5568 5566 5563 5561 5559 5557 5555 5553 5551 5549 5547 5546 5545 5545 5545 5545 5545 5546 5547 5549 5551 5553 5556 5559
5618 5614 5611 5607 5601 5596 5592 5589 5586 5582 5579 5576 5574 5572 5571 5570 5568 5566 5564 5561 5559 5556 5553 5549 5547 5545 5542 5540 5538 5536 5535 5534 5533 5533 5533 5534 5535 5536 5537 5539 5541 5544 5546
5614 5609 5605 5600 5594 5589 5586 5581 5579 5575 5572 5568 5564 5565 5564 5563 5561 5559 5557 5554 5552 5548 5545 5540 5537 5534 5531 5529 5527 5525 5524 5523 5522 5522 5522 5522 5523 5524 5525 5527 5529 5531 5534
5610 5604 5600 5594 5588 5584 5581 5576 5571 5566 5562 5555 5549 5550 5554 5555 5556 5555 5551 5548 5546 5541 5537 5532 5528 5524 5521 5518 5516 5514 5512 5511 5511 5510 5510 5510 5511 5512 5513 5515 5517 5519 5522
5606 5600 5595 5590 5584 5579 5574 5570 5563 5557 5554 5545 5539 5534 5537 5547 5552 5552 5549 5545 5540 5533 5529 5524 5519 5515 5511 5508 5504 5501 5500 5499 5499 5499 5498 5498 5499 5500 5501 5503 5505 5507 5509
5603 5598 5593 5587 5581 5575 5571 5565 5558 5551 5546 5540 5534 5527 5521 5536 5538 5543 5541 5538 5532 5526 5521 5515 5510 5506 5502 5498 5494 5490 5489 5487 5487 5487 5487 5487 5487 5488 5490 5491 5493 5495 5497
5599 5594 5589 5583 5578 5572 5568 5562 5555 5548 5540 5536 5527 5525 5523 5520 5516 5525 5529 5525 5521 5517 5511 5506 5502 5497 5493 5489 5484 5481 5478 5476 5475 5475 5475 5475 5476 5477 5478 5480 5481 5482 5484
5594 5590 5584 5579 5574 5569 5564 5558 5551 5544 5538 5533 5526 5519 5513 5508 5503 5497 5511 5513 5505 5505 5500 5495 5491 5487 5482 5478 5474 5470 5467 5466 5464 5463 5462 5463 5463 5464 5465 5467 5468 5469 5470
5588 5584 5579 5574 5570 5565 5560 5553 5546 5540 5535 5529 5523 5515 5507 5503 5502 5492 5493 5501 5495 5494 5489 5486 5482 5477 5472 5467 5463 5459 5457 5455 5453 5451 5450 5450 5449 5450 5451 5452 5453 5454 5455
5582 5578 5572 5569 5564 5560 5555 5548 5541 5536 5529 5524 5518 5513 5506 5503 5494 5487 5484 5488 5483 5482 5476 5476 5474 5468 5461 5456 5452 5448 5445 5443 5441 5439 5438 5436 5436 5436 5436 5436 5437 5438 5439
5577 5573 5567 5563 5559 5554 5548 5541 5535 5530 5524 5518 5513 5506 5501 5497 5488 5480 5474 5466 5465 5467 5463 5465 5462 5458 5451 5444 5440 5435 5433 5431 5428 5426 5425 5423 5422 5421 5421 5421 5422 5422 5423
5569 5565 5560 5555 5551 5546 5540 5534 5529 5525 5518 5513 5507 5500 5494 5490 5481 5474 5466 5457 5448 5452 5465 5460 5449 5446 5439 5432 5428 5424 5421 5418 5415 5413 5411 5409 5408 5407 5407 5407 5407 5407 5408
5559 5555 5551 5546 5542 5537 5532 5526 5523 5518 5511 5507 5500 5493 5488 5482 5474 5466 5458 5450 5442 5438 5446 5451 5442 5433 5427 5422 5416 5411 5408 5404 5402 5400 5398 5396 5395 5394 5393 5392 5392 5392 5393
5548 5544 5540 5536 5532 5527 5522 5517 5514 5509 5503 5500 5492 5486 5481 5473 5466 5458 5450 5443 5436 5428 5430 5440 5426 5420 5413 5407 5402 5398 5395 5391 5388 5386 5385 5383 5382 5380 5379 5378 5378 5378 5379
5536 5532 5528 5524 5520 5517 5512 5507 5504 5499 5494 5490 5484 5477 5473 5464 5458 5450 5443 5437 5430 5423 5418 5422 5415 5405 5400 5395 5389 5384 5381 5378 5375 5373 5371 5370 5369 5367 5366 5365 5364 5364 5364
5523 5519 5515 5511 5508 5504 5500 5497 5493 5490 5485 5481 5475 5469 5464 5455 5450 5443 5436 5430 5423 5416 5409 5406 5405 5395 5389 5382 5376 5372 5368 5365 5362 5361 5359 5358 5356 5354 5353 5352 5350 5349 5349
5508 5505 5501 5498 5494 5491 5487 5484 5480 5477 5474 5471 5466 5460 5455 5448 5443 5435 5428 5422 5414 5406 5399 5394 5392 5384 5377 5370 5362 5359 5356 5353 5350 5348 5346 5345 5343 5341 5340 5338 5336 5335 5334
5493 5489 5486 5483 5480 5476 5473 5469 5466 5464 5461 5458 5454 5449 5445 5439 5434 5426 5419 5411 5403 5396 5389 5383 5379 5373 5367 5357 5352 5347 5343 5341 5339 5335 5333 5331 5329 5328 5326 5322 5320 5319 5317
5477 5473 5470 5467 5465 5463 5462 5461 5458 5454 5450 5445 5442 5438 5433 5428 5425 5421 5416 5409 5398 5387 5381 5374 5370 5364 5358 5349 5341 5334 5329 5326 5327 5326 5320 5322 5317 5317 5314 5309 5306 5304 5303
5461 5457 5454 5452 5450 5448 5448 5448 5448 5446 5442 5437 5432 5427 5423 5419 5414 5409 5404 5401 5396 5389 5380 5367 5362 5357 5348 5340 5330 5323 5319 5316 5318 5315 5307 5311 5307 5306 5303 5299 5297 5294 5292
5445 5443 5440 5438 5436 5436 5435 5436 5436 5434 5431 5428 5423 5418 5413 5409 5404 5397 5392 5387 5382 5377 5370 5363 5357 5349 5339 5330 5322 5315 5310 5306 5306 5303 5296 5297 5298 5295 5294 5291 5287 5283 5281
5431 5429 5427 5424 5423 5423 5423 5423 5423 5421 5418 5416 5412 5408 5403 5400 5395 5390 5384 5378 5371 5366 5359 5354 5347 5340 5332 5324 5314 5305 5300 5296 5298 5298 5289 5284 5286 5283 5284 5283 5279 5273 5270
5417 5416 5415 5412 5411 5410 5410 5411 5411 5408 5406 5404 5400 5396 5394 5390 5386 5381 5375 5369 5363 5356 5347 5340 5335 5329 5323 5316 5310 5302 5294 5288 5287 5287 5282 5272 5271 5264 5270 5277 5271 5265 5260